CPA824 ZSPD-VHHH

Flight info

Callsign CPA824
Flight time 2h 19m
Altitude 34100
Route HSN81D HSN W13 TOGUG/K0889S1160 W13 BEGMO M503 TOLAK/N0481F381 M503 LELIM/N0500F300 V591 ABBEY ABBEY4A
Aircraft A333/H-SDE3GHIJ2J3J5M1RVWXY/LB2D1

Departure

Time 2026-05-04 02:40
Airport Shanghai Pudong International Airport (ZSPD)

Arrival

Time 2026-05-04 04:59
Airport Hong Kong International Airport (VHHH)
Time Latitude Longitude Altitude Speed Heading
2026-05-04 02:24 31.13668 121.80561 26 ft 0 kts 161°
2026-05-04 02:27 31.13673 121.80559 26 ft 2 kts 161°
2026-05-04 02:28 31.13687 121.80553 26 ft 2 kts 161°
2026-05-04 02:28 31.13701 121.80549 26 ft 2 kts 175°
2026-05-04 02:28 31.13716 121.80549 26 ft 2 kts 189°
2026-05-04 02:28 31.13731 121.80553 26 ft 2 kts 201°
2026-05-04 02:29 31.13745 121.80560 26 ft 2 kts 215°
2026-05-04 02:29 31.13756 121.80571 26 ft 2 kts 228°
2026-05-04 02:29 31.13765 121.80585 26 ft 2 kts 241°
2026-05-04 02:29 31.13771 121.80598 26 ft 0 kts 252°
2026-05-04 02:30 31.13771 121.80601 26 ft 0 kts 253°
2026-05-04 02:31 31.13768 121.80587 26 ft 3 kts 255°
2026-05-04 02:32 31.13783 121.80540 26 ft 10 kts 323°
2026-05-04 02:32 31.13863 121.80502 26 ft 12 kts 344°
2026-05-04 02:32 31.13949 121.80474 26 ft 12 kts 343°
2026-05-04 02:32 31.14029 121.80443 26 ft 11 kts 338°
2026-05-04 02:33 31.14103 121.80414 26 ft 10 kts 342°
2026-05-04 02:33 31.14173 121.80388 26 ft 10 kts 342°
2026-05-04 02:33 31.14211 121.80334 26 ft 8 kts 265°
2026-05-04 02:33 31.14191 121.80268 26 ft 9 kts 251°
2026-05-04 02:34 31.14166 121.80180 26 ft 12 kts 252°
2026-05-04 02:34 31.14136 121.80069 26 ft 15 kts 253°
2026-05-04 02:34 31.14100 121.79939 26 ft 18 kts 251°
2026-05-04 02:34 31.14058 121.79793 26 ft 18 kts 251°
2026-05-04 02:35 31.14097 121.79691 26 ft 15 kts 340°
2026-05-04 02:35 31.14194 121.79653 26 ft 14 kts 342°
2026-05-04 02:35 31.14287 121.79618 26 ft 13 kts 342°
2026-05-04 02:35 31.14365 121.79564 26 ft 13 kts 279°
2026-05-04 02:36 31.14390 121.79471 26 ft 12 kts 332°
2026-05-04 02:36 31.14475 121.79438 26 ft 13 kts 342°
2026-05-04 02:36 31.14568 121.79403 26 ft 15 kts 342°
2026-05-04 02:36 31.14689 121.79358 26 ft 20 kts 342°
2026-05-04 02:37 31.14844 121.79297 26 ft 26 kts 341°
2026-05-04 02:37 31.15030 121.79229 26 ft 28 kts 343°
2026-05-04 02:37 31.15218 121.79159 26 ft 27 kts 342°
2026-05-04 02:37 31.15397 121.79091 26 ft 26 kts 341°
2026-05-04 02:38 31.15568 121.79025 26 ft 25 kts 343°
2026-05-04 02:38 31.15731 121.78965 26 ft 24 kts 342°
2026-05-04 02:38 31.15888 121.78905 26 ft 23 kts 341°
2026-05-04 02:38 31.15963 121.78835 26 ft 11 kts 266°
2026-05-04 02:39 31.15946 121.78757 26 ft 9 kts 253°
2026-05-04 02:39 31.15911 121.78689 26 ft 10 kts 195°
2026-05-04 02:39 31.15844 121.78702 26 ft 12 kts 162°
2026-05-04 02:39 31.15574 121.78805 26 ft 78 kts 163°
2026-05-04 02:40 31.14819 121.79091 26 ft 149 kts 161°
2026-05-04 02:40 31.13630 121.79540 199 ft 195 kts 162°
2026-05-04 02:40 31.12413 121.79990 1175 ft 179 kts 168°
2026-05-04 02:40 31.11211 121.80288 1874 ft 177 kts 169°
2026-05-04 02:41 31.10035 121.80647 2534 ft 177 kts 167°
2026-05-04 02:41 31.08843 121.81044 3123 ft 180 kts 166°
2026-05-04 02:41 31.07642 121.81460 3719 ft 183 kts 166°
2026-05-04 02:41 31.06409 121.81893 4298 ft 181 kts 166°
2026-05-04 02:42 31.05194 121.82324 4575 ft 187 kts 165°
2026-05-04 02:42 31.03940 121.82769 4887 ft 189 kts 166°
2026-05-04 02:42 31.02678 121.83218 5241 ft 190 kts 166°
2026-05-04 02:42 31.01359 121.83687 5547 ft 208 kts 165°
2026-05-04 02:43 31.00013 121.84167 6420 ft 203 kts 165°
2026-05-04 02:43 30.98638 121.84539 7068 ft 207 kts 169°
2026-05-04 02:43 30.97312 121.85237 7725 ft 212 kts 153°
2026-05-04 02:43 30.95992 121.85954 8375 ft 215 kts 158°
2026-05-04 02:44 30.94556 121.86659 8863 ft 228 kts 159°
2026-05-04 02:44 30.93060 121.87367 9351 ft 240 kts 160°
2026-05-04 02:44 30.91440 121.87970 9874 ft 250 kts 164°
2026-05-04 02:44 30.89714 121.88602 10338 ft 270 kts 164°
2026-05-04 02:45 30.87849 121.89290 10874 ft 291 kts 164°
2026-05-04 02:45 30.85862 121.90020 11431 ft 312 kts 164°
2026-05-04 02:45 30.83764 121.90935 11957 ft 335 kts 151°
2026-05-04 02:45 30.81916 121.92741 12492 ft 357 kts 128°
2026-05-04 02:46 30.80732 121.95259 13005 ft 360 kts 106°
2026-05-04 02:46 30.80403 121.98125 13497 ft 361 kts 84°
2026-05-04 02:46 30.80986 122.00945 14005 ft 360 kts 62°
2026-05-04 02:46 30.82375 122.03335 14511 ft 358 kts 46°
2026-05-04 02:47 30.83709 122.05769 14991 ft 369 kts 65°
2026-05-04 02:47 30.84429 122.08670 15510 ft 375 kts 71°
2026-05-04 02:47 30.85200 122.11563 16000 ft 379 kts 70°
2026-05-04 02:47 30.86005 122.14484 16497 ft 383 kts 69°
2026-05-04 02:48 30.86827 122.17451 16988 ft 387 kts 69°
2026-05-04 02:48 30.87632 122.20429 17466 ft 391 kts 73°
2026-05-04 02:48 30.87870 122.23600 17938 ft 398 kts 94°
2026-05-04 02:48 30.87186 122.26716 18417 ft 400 kts 115°
2026-05-04 02:49 30.85679 122.29382 18883 ft 397 kts 136°
2026-05-04 02:49 30.83503 122.31326 19356 ft 390 kts 157°
2026-05-04 02:49 30.80978 122.32320 19827 ft 380 kts 173°
2026-05-04 02:49 30.78428 122.33063 20301 ft 383 kts 171°
2026-05-04 02:50 30.75852 122.33933 20765 ft 384 kts 171°
2026-05-04 02:50 30.73291 122.34838 21219 ft 385 kts 170°
2026-05-04 02:50 30.70730 122.35761 21666 ft 385 kts 171°
2026-05-04 02:50 30.68193 122.36681 22107 ft 384 kts 171°
2026-05-04 02:51 30.65628 122.37616 22554 ft 383 kts 172°
2026-05-04 02:51 30.63085 122.38541 23024 ft 382 kts 172°
2026-05-04 02:51 30.60534 122.39471 23506 ft 380 kts 172°
2026-05-04 02:51 30.58038 122.40035 23958 ft 361 kts 188°
2026-05-04 02:52 30.55561 122.39918 24491 ft 352 kts 192°
2026-05-04 02:52 30.53101 122.39784 24992 ft 351 kts 192°
2026-05-04 02:52 30.50675 122.39645 25481 ft 349 kts 193°
2026-05-04 02:52 30.48285 122.39509 26334 ft 341 kts 193°
2026-05-04 02:53 30.45947 122.39374 27036 ft 336 kts 194°
2026-05-04 02:53 30.43604 122.39234 27466 ft 340 kts 193°
2026-05-04 02:53 30.41252 122.39096 27884 ft 343 kts 193°
2026-05-04 02:53 30.38844 122.38960 28381 ft 344 kts 193°
2026-05-04 02:54 30.36447 122.38819 28793 ft 347 kts 193°
2026-05-04 02:54 30.34023 122.38679 29180 ft 349 kts 194°
2026-05-04 02:54 30.31597 122.38539 29626 ft 351 kts 193°
2026-05-04 02:54 30.29147 122.38397 29964 ft 355 kts 193°
2026-05-04 02:55 30.24153 122.38110 30524 ft 366 kts 193°
2026-05-04 02:55 30.21564 122.37961 30812 ft 370 kts 193°
2026-05-04 02:55 30.19010 122.37814 31096 ft 374 kts 193°
2026-05-04 02:56 30.16373 122.37660 31383 ft 378 kts 193°
2026-05-04 02:56 30.13718 122.37509 31665 ft 382 kts 193°
2026-05-04 02:56 30.11029 122.37356 31946 ft 384 kts 192°
2026-05-04 02:56 30.08360 122.37204 32218 ft 387 kts 192°
2026-05-04 02:57 30.05666 122.37048 32498 ft 389 kts 192°
2026-05-04 02:57 30.02955 122.36894 32773 ft 391 kts 193°
2026-05-04 02:57 30.00205 122.36736 33044 ft 393 kts 192°
2026-05-04 02:57 29.97511 122.36581 33313 ft 394 kts 192°
2026-05-04 02:58 29.94729 122.36425 33574 ft 395 kts 193°
2026-05-04 02:58 29.91935 122.36589 33808 ft 414 kts 180°
2026-05-04 02:58 29.89080 122.37280 33998 ft 418 kts 180°
2026-05-04 02:58 29.86190 122.37957 34142 ft 422 kts 179°
2026-05-04 02:59 29.83327 122.38628 34256 ft 426 kts 180°
2026-05-04 02:59 29.77411 122.40008 34236 ft 438 kts 179°
2026-05-04 03:00 29.71354 122.41421 34247 ft 446 kts 179°
2026-05-04 03:00 29.65193 122.42857 34247 ft 453 kts 179°
2026-05-04 03:01 29.58997 122.44299 34238 ft 458 kts 178°
2026-05-04 03:01 29.52733 122.45754 34240 ft 460 kts 179°
2026-05-04 03:02 29.46436 122.47216 34235 ft 461 kts 178°
2026-05-04 03:02 29.40150 122.48675 34242 ft 460 kts 179°
2026-05-04 03:03 29.33880 122.50124 34244 ft 454 kts 179°
2026-05-04 03:03 29.27670 122.51557 34262 ft 456 kts 179°
2026-05-04 03:04 29.21463 122.52720 34241 ft 439 kts 191°
2026-05-04 03:04 29.18521 122.52190 34269 ft 418 kts 206°
2026-05-04 03:04 29.15907 122.50856 34279 ft 410 kts 213°
2026-05-04 03:05 29.10764 122.47878 34253 ft 414 kts 213°
2026-05-04 03:05 29.05645 122.44868 34251 ft 413 kts 213°
2026-05-04 03:06 29.00567 122.41881 34257 ft 410 kts 213°
2026-05-04 03:06 28.95500 122.38901 34256 ft 410 kts 213°
2026-05-04 03:07 28.90386 122.35898 34256 ft 414 kts 213°
2026-05-04 03:07 28.85228 122.32871 34252 ft 414 kts 213°
2026-05-04 03:08 28.80083 122.29854 34245 ft 416 kts 213°
2026-05-04 03:08 28.74919 122.26833 34245 ft 418 kts 213°
2026-05-04 03:09 28.69748 122.23806 34249 ft 419 kts 214°
2026-05-04 03:09 28.64558 122.20775 34247 ft 420 kts 213°
2026-05-04 03:10 28.59345 122.17734 34244 ft 421 kts 214°
2026-05-04 03:10 28.54136 122.14697 34238 ft 422 kts 214°
2026-05-04 03:11 28.48922 122.11658 34245 ft 422 kts 214°
2026-05-04 03:11 28.43679 122.08614 34238 ft 422 kts 214°
2026-05-04 03:12 28.38468 122.05585 34244 ft 421 kts 213°
2026-05-04 03:12 28.33246 122.02557 34250 ft 420 kts 213°
2026-05-04 03:13 28.28026 121.99532 34246 ft 420 kts 214°
2026-05-04 03:13 28.22816 121.96513 34245 ft 420 kts 214°
2026-05-04 03:14 28.17609 121.93501 34247 ft 419 kts 214°
2026-05-04 03:14 28.12429 121.90511 34244 ft 419 kts 214°
2026-05-04 03:15 28.07248 121.87521 34231 ft 419 kts 215°
2026-05-04 03:15 28.02030 121.84512 34237 ft 420 kts 214°
2026-05-04 03:16 27.96905 121.81426 34243 ft 418 kts 216°
2026-05-04 03:16 27.91778 121.78252 34241 ft 418 kts 216°
2026-05-04 03:17 27.86712 121.75118 34254 ft 418 kts 216°
2026-05-04 03:17 27.81578 121.71944 34248 ft 419 kts 216°
2026-05-04 03:18 27.76451 121.68784 34247 ft 419 kts 216°
2026-05-04 03:18 27.71337 121.65631 34247 ft 420 kts 216°
2026-05-04 03:19 27.66203 121.62470 34244 ft 420 kts 216°
2026-05-04 03:19 27.61071 121.59313 34243 ft 421 kts 216°
2026-05-04 03:20 27.55924 121.56156 34244 ft 422 kts 216°
2026-05-04 03:20 27.50759 121.53000 34243 ft 422 kts 216°
2026-05-04 03:21 27.45610 121.49857 34240 ft 423 kts 216°
2026-05-04 03:21 27.40395 121.46678 34240 ft 423 kts 216°
2026-05-04 03:22 27.35222 121.43530 34236 ft 423 kts 216°
2026-05-04 03:22 27.30055 121.40385 34233 ft 423 kts 216°
2026-05-04 03:23 27.24877 121.37242 34230 ft 423 kts 216°
2026-05-04 03:23 27.19660 121.34074 34245 ft 424 kts 216°
2026-05-04 03:24 27.14502 121.30943 34248 ft 425 kts 216°
2026-05-04 03:24 27.09290 121.27786 34249 ft 426 kts 215°
2026-05-04 03:25 27.04042 121.24608 34251 ft 427 kts 215°
2026-05-04 03:25 26.98800 121.21438 34246 ft 428 kts 215°
2026-05-04 03:26 26.93567 121.18278 34238 ft 428 kts 215°
2026-05-04 03:26 26.88328 121.15120 34249 ft 429 kts 215°
2026-05-04 03:27 26.83140 121.11991 34255 ft 429 kts 215°
2026-05-04 03:27 26.77872 121.08820 34242 ft 429 kts 215°
2026-05-04 03:28 26.72599 121.05647 34247 ft 429 kts 215°
2026-05-04 03:28 26.67359 121.02486 34242 ft 429 kts 215°
2026-05-04 03:29 26.62080 120.99313 34236 ft 430 kts 215°
2026-05-04 03:29 26.56802 120.96139 34243 ft 429 kts 215°
2026-05-04 03:30 26.51531 120.92976 34241 ft 429 kts 215°
2026-05-04 03:30 26.46276 120.89823 34231 ft 429 kts 215°
2026-05-04 03:31 26.41002 120.86663 34233 ft 430 kts 215°
2026-05-04 03:31 26.35742 120.83512 34223 ft 430 kts 215°
2026-05-04 03:32 26.30463 120.80357 34231 ft 431 kts 215°
2026-05-04 03:32 26.25173 120.77198 34225 ft 431 kts 216°
2026-05-04 03:33 26.19886 120.74043 34223 ft 432 kts 215°
2026-05-04 03:33 26.14602 120.70892 34221 ft 432 kts 215°
2026-05-04 03:34 26.09267 120.67715 34216 ft 433 kts 215°
2026-05-04 03:34 26.03958 120.64558 34212 ft 433 kts 215°
2026-05-04 03:35 25.98667 120.61416 34211 ft 433 kts 215°
2026-05-04 03:35 25.93361 120.58263 34211 ft 433 kts 215°
2026-05-04 03:36 25.88046 120.55112 34209 ft 434 kts 215°
2026-05-04 03:36 25.82677 120.51932 34202 ft 434 kts 215°
2026-05-04 03:37 25.77352 120.48782 34202 ft 435 kts 214°
2026-05-04 03:37 25.72005 120.45621 34204 ft 435 kts 215°
2026-05-04 03:38 25.66639 120.42452 34196 ft 436 kts 215°
2026-05-04 03:38 25.61406 120.39120 34175 ft 429 kts 223°
2026-05-04 03:39 25.56652 120.35143 34180 ft 429 kts 223°
2026-05-04 03:39 25.51923 120.31210 34199 ft 431 kts 222°
2026-05-04 03:40 25.47118 120.27216 34195 ft 432 kts 222°
2026-05-04 03:40 25.42291 120.23212 34193 ft 433 kts 222°
2026-05-04 03:41 25.37446 120.19198 34201 ft 433 kts 222°
2026-05-04 03:41 25.32634 120.15210 34181 ft 434 kts 222°
2026-05-04 03:42 25.27792 120.11204 34179 ft 435 kts 222°
2026-05-04 03:42 25.22934 120.07189 34179 ft 435 kts 222°
2026-05-04 03:43 25.18069 120.03172 34180 ft 435 kts 222°
2026-05-04 03:43 25.13203 119.99159 34172 ft 436 kts 222°
2026-05-04 03:44 25.08365 119.95174 34172 ft 436 kts 222°
2026-05-04 03:44 25.03487 119.91157 34165 ft 436 kts 222°
2026-05-04 03:45 24.98897 119.86902 34146 ft 428 kts 233°
2026-05-04 03:45 24.95033 119.81914 34156 ft 428 kts 233°
2026-05-04 03:46 24.91139 119.76917 34158 ft 429 kts 233°
2026-05-04 03:46 24.87258 119.71945 34168 ft 429 kts 233°
2026-05-04 03:47 24.83394 119.66997 34166 ft 429 kts 233°
2026-05-04 03:47 24.79492 119.62007 34165 ft 430 kts 233°
2026-05-04 03:48 24.75576 119.57004 34166 ft 430 kts 233°
2026-05-04 03:48 24.71686 119.52039 34165 ft 431 kts 233°
2026-05-04 03:49 24.67755 119.47026 34157 ft 431 kts 233°
2026-05-04 03:49 24.63857 119.42063 34163 ft 432 kts 233°
2026-05-04 03:50 24.59929 119.37068 34155 ft 432 kts 233°
2026-05-04 03:50 24.55998 119.32072 34179 ft 432 kts 232°
2026-05-04 03:51 24.52035 119.27040 34167 ft 434 kts 233°
2026-05-04 03:51 24.48111 119.22063 34176 ft 434 kts 232°
2026-05-04 03:52 24.44131 119.17021 34172 ft 435 kts 233°
2026-05-04 03:52 24.40169 119.12009 34162 ft 435 kts 233°
2026-05-04 03:53 24.36199 119.06991 34166 ft 436 kts 233°
2026-05-04 03:53 24.32232 119.01977 34165 ft 437 kts 233°
2026-05-04 03:54 24.28243 118.96948 34160 ft 437 kts 233°
2026-05-04 03:54 24.24232 118.91892 34157 ft 438 kts 232°
2026-05-04 03:55 24.20254 118.86884 34154 ft 438 kts 233°
2026-05-04 03:55 24.16253 118.81852 34154 ft 438 kts 233°
2026-05-04 03:56 24.12258 118.76833 34154 ft 438 kts 233°
2026-05-04 03:56 24.08241 118.71793 34151 ft 438 kts 233°
2026-05-04 03:57 24.04252 118.66792 34146 ft 438 kts 232°
2026-05-04 03:57 24.00243 118.61771 34145 ft 438 kts 232°
2026-05-04 03:58 23.94219 118.54236 34143 ft 439 kts 233°
2026-05-04 03:58 23.90222 118.49241 34142 ft 439 kts 232°
2026-05-04 03:59 23.86183 118.44204 34142 ft 439 kts 232°
2026-05-04 03:59 23.82130 118.39205 34144 ft 440 kts 232°
2026-05-04 04:00 23.78056 118.34188 34144 ft 440 kts 232°
2026-05-04 04:00 23.74010 118.29207 34152 ft 441 kts 232°
2026-05-04 04:01 23.69935 118.24197 34152 ft 442 kts 232°
2026-05-04 04:01 23.65855 118.19187 34152 ft 442 kts 232°
2026-05-04 04:02 23.61763 118.14166 34153 ft 443 kts 232°
2026-05-04 04:02 23.57658 118.09134 34158 ft 444 kts 232°
2026-05-04 04:03 23.53554 118.04109 34154 ft 444 kts 232°
2026-05-04 04:03 23.49445 117.99084 34158 ft 444 kts 232°
2026-05-04 04:04 23.45335 117.94061 34148 ft 445 kts 232°
2026-05-04 04:04 23.41233 117.89054 34150 ft 445 kts 232°
2026-05-04 04:05 23.37104 117.84019 34146 ft 446 kts 232°
2026-05-04 04:05 23.32976 117.78988 34147 ft 447 kts 232°
2026-05-04 04:06 23.28825 117.73938 34145 ft 447 kts 232°
2026-05-04 04:06 23.24684 117.68903 34148 ft 447 kts 232°
2026-05-04 04:07 23.20527 117.63854 34138 ft 448 kts 232°
2026-05-04 04:07 23.16389 117.58833 34138 ft 448 kts 232°
2026-05-04 04:08 23.12226 117.53787 34138 ft 448 kts 232°
2026-05-04 04:08 23.08082 117.48743 34139 ft 448 kts 232°
2026-05-04 04:09 23.03977 117.43650 34134 ft 449 kts 232°
2026-05-04 04:09 22.99879 117.38573 34131 ft 449 kts 232°
2026-05-04 04:10 22.95775 117.33484 34142 ft 449 kts 232°
2026-05-04 04:10 22.91903 117.28190 34141 ft 448 kts 237°
2026-05-04 04:11 22.88215 117.22698 34125 ft 449 kts 236°
2026-05-04 04:11 22.86379 117.19968 34009 ft 451 kts 236°
2026-05-04 04:11 22.84556 117.17261 33903 ft 436 kts 236°
2026-05-04 04:12 22.82793 117.14646 33916 ft 417 kts 237°
2026-05-04 04:12 22.81127 117.12172 33839 ft 401 kts 237°
2026-05-04 04:12 22.79501 117.09759 33372 ft 395 kts 237°
2026-05-04 04:12 22.77892 117.07370 32720 ft 393 kts 237°
2026-05-04 04:13 22.76288 117.04993 32188 ft 390 kts 237°
2026-05-04 04:13 22.74704 117.02646 31702 ft 386 kts 237°
2026-05-04 04:13 22.73327 117.00177 31148 ft 378 kts 249°
2026-05-04 04:13 22.72380 116.97550 30673 ft 373 kts 250°
2026-05-04 04:14 22.71438 116.94991 30233 ft 369 kts 250°
2026-05-04 04:14 22.70490 116.92403 29678 ft 367 kts 250°
2026-05-04 04:14 22.69558 116.89873 29201 ft 363 kts 250°
2026-05-04 04:14 22.68638 116.87369 28727 ft 359 kts 250°
2026-05-04 04:15 22.67714 116.84860 28234 ft 356 kts 250°
2026-05-04 04:15 22.66813 116.82409 27680 ft 354 kts 250°
2026-05-04 04:15 22.65894 116.79916 27086 ft 354 kts 249°
2026-05-04 04:15 22.64989 116.77457 26579 ft 352 kts 249°
2026-05-04 04:16 22.64094 116.75030 26079 ft 349 kts 249°
2026-05-04 04:16 22.63192 116.72587 25585 ft 347 kts 249°
2026-05-04 04:16 22.62309 116.70199 25060 ft 346 kts 249°
2026-05-04 04:16 22.61418 116.67785 24580 ft 343 kts 249°
2026-05-04 04:17 22.60536 116.65399 24094 ft 341 kts 249°
2026-05-04 04:17 22.59662 116.63036 23608 ft 339 kts 249°
2026-05-04 04:17 22.58793 116.60687 23091 ft 338 kts 249°
2026-05-04 04:17 22.57924 116.58337 22644 ft 336 kts 249°
2026-05-04 04:18 22.57054 116.55989 22156 ft 335 kts 249°
2026-05-04 04:18 22.56200 116.53687 21725 ft 332 kts 249°
2026-05-04 04:18 22.55343 116.51376 21269 ft 331 kts 249°
2026-05-04 04:18 22.54484 116.49059 20817 ft 329 kts 248°
2026-05-04 04:19 22.53643 116.46792 20403 ft 326 kts 248°
2026-05-04 04:19 22.52805 116.44537 19989 ft 324 kts 248°
2026-05-04 04:19 22.51968 116.42285 19491 ft 324 kts 248°
2026-05-04 04:19 22.51131 116.40032 19049 ft 322 kts 248°
2026-05-04 04:20 22.50296 116.37788 18655 ft 319 kts 248°
2026-05-04 04:20 22.49469 116.35565 18221 ft 318 kts 248°
2026-05-04 04:20 22.48646 116.33353 17811 ft 316 kts 248°
2026-05-04 04:20 22.47838 116.31184 17447 ft 313 kts 248°
2026-05-04 04:21 22.47029 116.29014 17023 ft 312 kts 248°
2026-05-04 04:21 22.46218 116.26840 16613 ft 311 kts 248°
2026-05-04 04:21 22.45407 116.24666 16202 ft 310 kts 248°
2026-05-04 04:21 22.44602 116.22511 15800 ft 309 kts 248°
2026-05-04 04:22 22.43811 116.20393 15442 ft 306 kts 248°
2026-05-04 04:22 22.43012 116.18256 15053 ft 305 kts 248°
2026-05-04 04:22 22.42222 116.16138 14668 ft 303 kts 249°
2026-05-04 04:22 22.41445 116.14060 14299 ft 301 kts 249°
2026-05-04 04:23 22.40664 116.11970 13916 ft 299 kts 249°
2026-05-04 04:23 22.39882 116.09882 13505 ft 299 kts 249°
2026-05-04 04:23 22.39104 116.07803 13155 ft 296 kts 249°
2026-05-04 04:23 22.38335 116.05749 12767 ft 295 kts 249°
2026-05-04 04:24 22.37577 116.03725 12395 ft 294 kts 249°
2026-05-04 04:24 22.36811 116.01681 12024 ft 292 kts 249°
2026-05-04 04:24 22.36041 115.99629 11629 ft 292 kts 249°
2026-05-04 04:24 22.35284 115.97611 11269 ft 290 kts 249°
2026-05-04 04:25 22.34534 115.95614 10887 ft 290 kts 249°
2026-05-04 04:25 22.33781 115.93609 10546 ft 287 kts 249°
2026-05-04 04:25 22.33028 115.91603 10218 ft 284 kts 249°
2026-05-04 04:25 22.32289 115.89640 9874 ft 283 kts 249°
2026-05-04 04:26 22.31548 115.87665 9473 ft 283 kts 249°
2026-05-04 04:26 22.30820 115.85729 9164 ft 280 kts 249°
2026-05-04 04:26 22.30073 115.83746 8958 ft 295 kts 249°
2026-05-04 04:26 22.29564 115.81615 8983 ft 292 kts 266°
2026-05-04 04:27 22.29521 115.79446 8963 ft 286 kts 268°
2026-05-04 04:27 22.29468 115.77303 8958 ft 283 kts 268°
2026-05-04 04:27 22.29416 115.75187 8965 ft 281 kts 268°
2026-05-04 04:27 22.29361 115.73088 8965 ft 282 kts 268°
2026-05-04 04:28 22.29306 115.70960 8967 ft 280 kts 268°
2026-05-04 04:28 22.29250 115.68881 8966 ft 281 kts 268°
2026-05-04 04:28 22.29193 115.66760 8964 ft 281 kts 268°
2026-05-04 04:28 22.29135 115.64643 8965 ft 282 kts 268°
2026-05-04 04:29 22.29079 115.62549 8964 ft 281 kts 268°
2026-05-04 04:29 22.29021 115.60433 8968 ft 281 kts 268°
2026-05-04 04:29 22.28963 115.58302 8970 ft 281 kts 268°
2026-05-04 04:29 22.28906 115.56216 8968 ft 281 kts 268°
2026-05-04 04:30 22.28847 115.54112 8970 ft 281 kts 268°
2026-05-04 04:30 22.28788 115.51986 8965 ft 282 kts 268°
2026-05-04 04:30 22.28730 115.49869 8963 ft 281 kts 268°
2026-05-04 04:30 22.28671 115.47759 8967 ft 281 kts 268°
2026-05-04 04:31 22.28612 115.45688 8956 ft 272 kts 268°
2026-05-04 04:31 22.28555 115.43665 8958 ft 271 kts 268°
2026-05-04 04:31 22.28494 115.41530 8992 ft 287 kts 268°
2026-05-04 04:31 22.28298 115.39378 8955 ft 292 kts 256°
2026-05-04 04:32 22.27707 115.37265 8973 ft 293 kts 254°
2026-05-04 04:32 22.27107 115.35172 8966 ft 293 kts 253°
2026-05-04 04:32 22.26485 115.33056 8974 ft 294 kts 253°
2026-05-04 04:32 22.25858 115.30943 8971 ft 293 kts 253°
2026-05-04 04:33 22.25238 115.28873 8971 ft 293 kts 253°
2026-05-04 04:33 22.24605 115.26765 8971 ft 294 kts 253°
2026-05-04 04:33 22.23997 115.24740 8973 ft 295 kts 253°
2026-05-04 04:33 22.23380 115.22693 8967 ft 295 kts 253°
2026-05-04 04:34 22.22741 115.20572 8968 ft 293 kts 253°
2026-05-04 04:34 22.22114 115.18493 8973 ft 292 kts 253°
2026-05-04 04:34 22.21473 115.16367 8970 ft 295 kts 253°
2026-05-04 04:34 22.20843 115.14282 8970 ft 294 kts 253°
2026-05-04 04:35 22.20207 115.12180 8971 ft 293 kts 253°
2026-05-04 04:35 22.19577 115.10094 8971 ft 295 kts 253°
2026-05-04 04:35 22.18933 115.07967 8964 ft 293 kts 253°
2026-05-04 04:35 22.18300 115.05875 8972 ft 294 kts 253°
2026-05-04 04:36 22.17672 115.03800 8974 ft 295 kts 253°
2026-05-04 04:36 22.17032 115.01687 8969 ft 295 kts 253°
2026-05-04 04:36 22.16394 114.99582 8970 ft 295 kts 253°
2026-05-04 04:36 22.15760 114.97489 8971 ft 293 kts 253°
2026-05-04 04:37 22.13846 114.91185 8969 ft 295 kts 252°
2026-05-04 04:37 22.13201 114.89062 8971 ft 296 kts 253°
2026-05-04 04:38 22.12561 114.86958 8968 ft 295 kts 253°
2026-05-04 04:38 22.11913 114.84827 8970 ft 295 kts 253°
2026-05-04 04:38 22.11273 114.82725 8967 ft 294 kts 253°
2026-05-04 04:38 22.10631 114.80614 8969 ft 295 kts 253°
2026-05-04 04:39 22.09990 114.78513 8970 ft 295 kts 253°
2026-05-04 04:39 22.09348 114.76408 8968 ft 294 kts 253°
2026-05-04 04:39 22.08709 114.74310 8968 ft 295 kts 253°
2026-05-04 04:39 22.08069 114.72214 8967 ft 294 kts 253°
2026-05-04 04:40 22.07427 114.70106 8971 ft 294 kts 253°
2026-05-04 04:40 22.06787 114.68012 8967 ft 294 kts 253°
2026-05-04 04:40 22.06137 114.65887 8966 ft 295 kts 253°
2026-05-04 04:40 22.05502 114.63808 8966 ft 294 kts 253°
2026-05-04 04:41 22.04858 114.61704 8964 ft 294 kts 253°
2026-05-04 04:41 22.04219 114.59615 8972 ft 292 kts 253°
2026-05-04 04:41 22.03581 114.57530 8969 ft 294 kts 253°
2026-05-04 04:41 22.02936 114.55424 8964 ft 294 kts 252°
2026-05-04 04:42 22.02303 114.53365 8945 ft 286 kts 252°
2026-05-04 04:42 22.01575 114.51421 8906 ft 273 kts 249°
2026-05-04 04:42 22.00857 114.49552 8794 ft 264 kts 249°
2026-05-04 04:42 22.00164 114.47741 8461 ft 264 kts 249°
2026-05-04 04:43 21.99454 114.45885 8096 ft 265 kts 249°
2026-05-04 04:43 21.98754 114.44060 7859 ft 261 kts 249°
2026-05-04 04:43 21.98064 114.42257 7671 ft 263 kts 249°
2026-05-04 04:43 21.97364 114.40428 7564 ft 264 kts 249°
2026-05-04 04:44 21.96669 114.38616 7440 ft 262 kts 249°
2026-05-04 04:44 21.95968 114.36788 7314 ft 260 kts 249°
2026-05-04 04:44 21.95270 114.34965 7182 ft 261 kts 249°
2026-05-04 04:44 21.94583 114.33177 7065 ft 261 kts 249°
2026-05-04 04:45 21.93889 114.31365 6948 ft 261 kts 249°
2026-05-04 04:45 21.93191 114.29549 6830 ft 261 kts 248°
2026-05-04 04:45 21.92490 114.27722 6701 ft 262 kts 248°
2026-05-04 04:47 21.90460 114.16826 6011 ft 262 kts 299°
2026-05-04 04:47 21.91359 114.15111 5904 ft 262 kts 297°
2026-05-04 04:47 21.92243 114.13406 5777 ft 260 kts 298°
2026-05-04 04:47 21.93133 114.11685 5655 ft 260 kts 298°
2026-05-04 04:48 21.94014 114.09982 5540 ft 260 kts 298°
2026-05-04 04:49 21.97551 114.03135 5047 ft 260 kts 298°
2026-05-04 04:49 21.98428 114.01436 4929 ft 261 kts 298°
2026-05-04 04:49 21.99314 113.99719 4800 ft 260 kts 298°
2026-05-04 04:49 22.00193 113.98015 4706 ft 260 kts 298°
2026-05-04 04:50 22.01081 113.96293 4627 ft 260 kts 298°
2026-05-04 04:50 22.01969 113.94569 4555 ft 261 kts 298°
2026-05-04 04:50 22.02842 113.92875 4473 ft 260 kts 298°
2026-05-04 04:50 22.03718 113.91174 4384 ft 259 kts 298°
2026-05-04 04:51 22.04601 113.89461 4306 ft 259 kts 299°
2026-05-04 04:51 22.05489 113.87734 4239 ft 260 kts 299°
2026-05-04 04:51 22.06367 113.86030 4156 ft 259 kts 299°
2026-05-04 04:51 22.07239 113.84335 4051 ft 260 kts 299°
2026-05-04 04:52 22.08117 113.82627 3972 ft 260 kts 299°
2026-05-04 04:52 22.09000 113.80909 3895 ft 259 kts 299°
2026-05-04 04:52 22.09879 113.79199 3817 ft 259 kts 299°
2026-05-04 04:52 22.10936 113.77616 3719 ft 256 kts 320°
2026-05-04 04:53 22.12451 113.76691 3639 ft 246 kts 337°
2026-05-04 04:53 22.14002 113.75932 3512 ft 240 kts 335°
2026-05-04 04:53 22.15508 113.75181 3373 ft 235 kts 336°
2026-05-04 04:53 22.16976 113.74450 3235 ft 231 kts 336°
2026-05-04 04:54 22.18437 113.73721 3048 ft 229 kts 336°
2026-05-04 04:54 22.19898 113.72993 2783 ft 231 kts 336°
2026-05-04 04:54 22.21377 113.72253 2514 ft 228 kts 337°
2026-05-04 04:54 22.22850 113.71773 2219 ft 219 kts
2026-05-04 04:55 22.24283 113.72189 1962 ft 209 kts 35°
2026-05-04 04:55 22.25405 113.73160 1678 ft 205 kts 40°
2026-05-04 04:55 22.26497 113.74143 1446 ft 198 kts 41°
2026-05-04 04:55 22.27514 113.75073 1463 ft 183 kts 41°
2026-05-04 04:56 22.28255 113.76114 1543 ft 176 kts 67°
2026-05-04 04:56 22.28628 113.77377 1484 ft 176 kts 73°
2026-05-04 04:56 22.29033 113.78620 1439 ft 175 kts 69°
2026-05-04 04:56 22.29492 113.79877 1506 ft 181 kts 67°
2026-05-04 04:57 22.29958 113.81113 1626 ft 170 kts 68°
2026-05-04 04:57 22.30310 113.82269 1371 ft 157 kts 73°
2026-05-04 04:57 22.30639 113.83391 1078 ft 157 kts 73°
2026-05-04 04:57 22.30960 113.84489 873 ft 147 kts 70°
2026-05-04 04:58 22.31280 113.85455 624 ft 134 kts 68°
2026-05-04 04:58 22.31604 113.86443 414 ft 146 kts 72°
2026-05-04 04:58 22.31903 113.87434 260 ft 134 kts 69°
2026-05-04 04:58 22.32222 113.88397 89 ft 138 kts 71°
2026-05-04 04:59 22.32515 113.89336 49 ft 132 kts 72°
2026-05-04 04:59 22.32773 113.90137 39 ft 83 kts 69°
2026-05-04 04:59 22.32906 113.90543 39 ft 32 kts 72°
2026-05-04 04:59 22.32943 113.90688 39 ft 21 kts 79°
2026-05-04 05:00 22.32929 113.90855 39 ft 25 kts 104°
2026-05-04 05:00 22.32899 113.91057 39 ft 27 kts 86°
2026-05-04 05:00 22.33015 113.91432 39 ft 25 kts 71°
2026-05-04 05:01 22.33072 113.91613 39 ft 25 kts 72°
2026-05-04 05:01 22.33127 113.91790 39 ft 24 kts 68°
2026-05-04 05:01 22.33187 113.91974 39 ft 27 kts 76°
2026-05-04 05:01 22.33155 113.92129 39 ft 21 kts 161°
2026-05-04 05:02 22.33010 113.92184 39 ft 24 kts 160°
2026-05-04 05:02 22.32832 113.92255 39 ft 31 kts 162°
2026-05-04 05:02 22.32613 113.92342 39 ft 34 kts 159°
2026-05-04 05:02 22.32387 113.92423 39 ft 33 kts 163°
2026-05-04 05:03 22.32207 113.92493 39 ft 11 kts 159°
2026-05-04 05:03 22.32164 113.92545 39 ft 9 kts 91°
2026-05-04 05:04 22.32101 113.92729 39 ft 12 kts 160°
2026-05-04 05:04 22.31987 113.92776 39 ft 21 kts 157°
2026-05-04 05:04 22.31840 113.92831 39 ft 24 kts 161°